Date,TemperatureHighF,TemperatureAvgF,TemperatureLowF,DewpointHighF,DewpointAvgF,DewpointLowF,HumidityHigh,HumidityAvg,HumidityLow,PressureMaxIn,PressureMinIn,WindSpeedMaxMPH,WindSpeedAvgMPH,GustSpeedMaxMPH,PrecipitationSumIn
2013-3-1,44.6,40.1,39.9,35.3,25.7,-99.9,83,67,68,29.94,29.93,2,-66,0,0.00
2013-3-2,48.4,41.5,28.9,37.1,31.9,27.3,99,71,50,29.95,29.69,5,2,3,0.00
2013-3-3,48.2,37.1,25.5,31.1,27.1,20.8,99,70,40,30.00,29.70,14,2,16,0.00
2013-3-4,50.0,36.1,25.5,25.3,21.7,18.5,96,59,30,29.99,29.81,12,3,16,0.00
2013-3-5,62.1,47.5,26.1,56.1,37.2,21.4,98,69,40,30.01,29.60,12,3,20,0.03
2013-3-6,59.4,47.9,41.0,57.4,38.3,26.8,96,71,45,29.90,29.50,22,10,29,0.12
2013-3-7,56.1,45.6,36.0,34.4,31.1,26.5,74,58,39,30.19,29.90,18,6,25,0.00
2013-3-8,59.4,44.5,36.3,30.5,28.1,25.2,73,54,34,30.26,30.09,19,5,26,0.22
2013-3-9,61.2,46.9,33.1,35.7,32.0,27.4,99,59,36,30.32,30.21,16,5,18,0.00
2013-3-10,62.2,46.0,27.5,46.0,37.3,27.1,99,76,36,30.34,30.26,14,4,17,0.00
2013-3-11,69.3,57.1,41.2,55.9,49.7,40.9,99,79,52,30.29,30.01,14,4,15,0.00
2013-3-12,64.4,60.9,54.1,63.6,58.9,53.8,99,94,75,30.01,29.71,15,5,19,1.77
2013-3-13,61.5,51.4,42.8,55.1,40.9,28.2,99,70,30,30.06,29.87,12,4,13,0.00
2013-3-14,55.8,42.6,32.2,32.5,24.9,20.2,89,51,32,30.22,30.06,13,5,17,0.00
2013-3-15,56.1,45.1,25.2,44.0,31.4,20.1,99,63,27,30.21,29.99,18,5,21,0.00
2013-3-16,67.3,59.2,53.6,53.7,50.3,44.0,84,73,57,29.99,29.75,19,9,22,0.00
2013-3-17,61.0,52.7,46.4,52.4,48.3,42.7,99,85,72,30.17,29.86,16,7,21,0.00
2013-3-18,67.6,54.2,47.7,57.2,50.7,44.3,99,88,67,30.17,29.91,15,6,21,0.00
2013-3-19,69.6,57.5,45.5,57.5,52.6,43.8,99,86,41,29.97,29.76,12,4,15,0.47
2013-3-20,57.9,48.4,36.5,44.8,28.1,14.0,99,50,20,30.12,29.82,10,3,14,0.00
2013-3-21,54.5,41.1,29.5,44.5,30.5,15.5,99,70,42,29.95,29.68,13,3,15,0.00
2013-3-22,49.8,39.2,24.1,35.6,22.5,12.7,77,53,28,30.09,29.95,12,4,17,0.00
2013-3-23,61.2,45.9,32.2,38.7,33.4,28.2,99,65,36,30.06,29.93,8,2,9,0.00
2013-3-24,57.0,46.9,32.0,99.9,46.4,36.0,99,94,69,29.97,29.42,20,6,23,0.50
2013-3-25,52.2,44.7,38.8,44.2,38.5,28.2,99,80,53,29.81,29.49,16,6,21,0.00
2013-3-26,52.2,42.3,33.3,34.1,29.7,26.2,84,62,41,30.07,29.81,10,4,12,0.00
2013-3-27,56.8,43.3,31.6,34.3,30.0,24.9,89,63,31,30.20,30.07,12,3,16,0.00
2013-3-28,57.7,42.0,25.5,32.2,28.2,24.3,99,63,31,30.26,30.14,14,3,17,0.00
2013-3-29,60.3,44.4,28.2,42.0,33.2,27.9,99,70,32,30.33,30.21,12,3,24,0.00
2013-3-30,65.1,51.8,40.5,99.9,43.5,38.4,99,74,40,30.26,30.15,10,2,12,0.00
2013-3-31,67.8,55.9,42.3,57.0,51.2,42.0,99,85,65,30.17,29.83,20,6,24,0.04
2013-4-1,67.3,59.3,52.0,61.0,57.5,51.7,99,94,78,29.91,29.80,13,4,17,0.07
2013-4-2,61.7,50.9,39.4,52.4,40.1,31.3,99,70,34,30.16,29.91,13,4,16,0.00
2013-4-3,55.0,46.6,39.0,45.7,38.1,27.1,99,75,42,30.31,30.13,13,4,16,0.00
2013-4-4,62.8,48.8,-40.0,62.5,42.5,-40.2,99,80,57,30.34,29.74,17,7,22,2.06
2013-4-5,63.1,51.5,39.7,62.8,49.1,39.3,99,92,66,30.02,29.72,17,5,23,0.19
2013-4-6,60.1,47.6,36.0,47.4,39.9,34.8,99,78,45,30.32,30.01,19,5,23,0.00
2013-4-7,71.2,56.0,39.0,54.0,47.5,38.5,99,76,45,30.31,30.18,11,4,12,0.00
2013-4-8,74.1,64.1,51.6,63.0,58.0,50.8,99,81,66,30.23,30.09,14,4,16,0.00
2013-4-9,75.6,67.2,59.5,65.7,62.2,58.7,99,85,69,30.24,30.14,15,5,16,0.00
2013-4-10,77.4,68.1,62.1,66.1,63.0,61.2,99,85,61,30.17,30.02,14,6,16,0.00
2013-4-11,78.1,69.6,62.1,69.5,65.7,61.3,99,88,74,30.06,29.91,14,6,16,0.00
2013-4-12,73.8,68.3,64.8,70.7,67.1,64.2,99,96,90,29.92,29.71,14,7,18,1.10
2013-4-13,67.5,60.2,43.5,66.4,53.8,20.3,99,81,53,30.09,29.75,15,5,21,0.00
2013-4-14,75.6,57.1,43.2,58.8,49.4,40.5,99,80,31,30.13,30.00,7,1,12,0.12
2013-4-15,73.4,64.2,58.3,63.7,60.3,55.9,98,87,67,30.21,30.01,17,4,21,0.72
2013-4-16,77.0,66.5,56.7,66.2,61.7,55.9,99,86,57,30.29,30.15,11,3,13,0.11
2013-4-17,79.3,65.8,51.8,67.2,59.7,51.5,99,83,60,30.26,30.17,9,2,10,0.00
2013-4-18,77.5,67.0,32.0,99.9,62.0,54.9,99,81,61,30.24,30.11,11,3,14,0.16
2013-4-19,79.3,71.6,66.0,99.9,68.6,64.9,99,90,80,30.11,29.91,18,7,24,0.27
2013-4-20,71.8,59.0,50.2,69.5,55.7,46.7,99,89,74,30.28,29.88,15,4,22,1.87
2013-4-21,61.3,52.4,43.5,48.4,43.5,35.4,99,74,51,30.47,30.26,22,8,28,0.03
2013-4-22,55.8,53.1,49.5,54.0,50.8,45.2,99,92,84,30.43,30.16,19,10,24,0.37
2013-4-23,64.6,55.0,47.1,54.6,52.1,46.6,99,91,68,30.20,30.06,16,6,19,0.00
2013-4-24,71.8,59.0,41.9,63.4,54.5,41.6,99,87,67,30.23,30.07,11,4,16,0.00
2013-4-25,70.0,61.4,42.2,64.3,56.7,41.9,99,85,69,30.30,30.08,15,6,20,0.01
2013-4-26,68.4,56.4,42.3,52.6,43.4,25.5,99,68,22,30.42,30.18,15,4,18,0.00
2013-4-27,72.0,59.6,47.1,56.5,47.6,40.1,99,69,33,30.41,30.32,13,4,15,0.00
2013-4-28,73.0,61.5,46.8,57.6,48.8,38.2,98,67,33,30.32,30.14,9,3,10,0.00
2013-4-29,67.5,64.5,61.3,99.9,61.0,54.8,98,85,71,30.15,30.00,10,4,14,0.55
2013-4-30,77.4,67.1,58.1,64.5,61.7,57.7,99,85,55,30.13,30.00,12,4,15,0.00
2013-5-1,73.9,64.5,57.2,65.2,61.0,56.9,99,89,71,30.27,29.94,16,5,19,0.04
2013-5-2,71.1,63.3,59.9,62.5,59.5,55.8,99,88,63,30.30,30.22,18,8,22,0.11
2013-5-3,69.1,61.2,56.1,59.2,54.3,47.0,95,79,58,30.23,30.00,23,10,28,0.00
2013-5-4,64.0,57.6,54.5,99.9,55.9,51.4,99,91,78,30.15,30.04,17,8,21,0.53
2013-5-5,71.1,62.5,56.1,99.9,60.3,55.1,99,92,75,30.07,29.99,14,6,16,0.09
2013-5-6,74.8,65.9,59.9,65.7,62.7,59.6,99,90,70,30.01,29.74,12,4,16,2.06
2013-5-7,73.8,62.3,54.3,64.8,56.9,51.6,99,84,48,29.99,29.88,11,3,15,0.05
2013-5-8,73.8,64.3,49.5,64.4,57.5,49.2,99,81,51,30.05,29.83,12,4,16,0.00
2013-5-9,79.2,70.4,59.0,67.4,62.7,57.8,97,78,61,30.09,29.83,10,4,14,0.00
2013-5-10,81.5,70.7,57.7,69.4,64.7,57.4,99,83,62,30.11,30.04,10,3,10,0.00
2013-5-11,80.2,73.4,69.6,72.4,68.6,65.8,96,85,74,30.05,29.68,15,7,21,0.00
2013-5-12,84.0,72.0,61.5,68.4,63.4,47.1,94,76,35,29.99,29.79,12,4,16,0.00
2013-5-13,72.1,61.2,45.1,53.0,45.8,38.7,92,59,34,30.15,29.99,14,4,18,0.00
2013-5-14,72.3,59.6,40.8,54.1,42.5,32.3,98,57,27,30.25,29.97,15,3,18,0.00
2013-5-15,76.8,69.6,60.4,64.0,59.6,49.4,85,71,60,30.17,29.94,19,8,25,0.02
2013-5-16,82.4,73.4,66.7,69.4,65.7,62.4,87,77,63,30.00,29.74,16,7,24,0.00
2013-5-17,84.4,74.1,66.7,71.6,66.7,63.6,98,79,56,30.15,29.93,7,2,9,0.00
2013-5-18,81.7,72.8,64.9,72.3,68.2,64.6,99,86,72,30.19,30.08,9,3,12,0.00
2013-5-19,82.2,73.6,64.2,71.3,67.3,63.9,99,82,62,30.20,29.97,11,3,15,0.00
2013-5-20,81.5,73.9,68.2,70.4,67.9,64.4,94,82,65,30.18,30.08,16,5,19,0.01
2013-5-21,81.7,75.0,70.3,71.9,69.9,68.5,96,85,68,30.10,29.85,13,6,15,0.00
2013-5-22,83.5,76.3,70.9,73.1,70.9,69.3,97,84,71,30.08,29.80,12,5,16,0.00
2013-5-23,79.9,73.4,69.1,72.4,70.4,67.5,96,91,77,30.03,29.80,11,4,15,0.19
2013-5-24,81.0,72.1,58.8,71.3,63.2,46.0,98,75,51,30.13,29.77,13,4,17,0.00
2013-5-25,75.0,59.5,46.2,49.9,44.3,38.4,92,61,32,30.25,30.13,9,3,11,0.00
2013-5-26,78.8,62.3,48.9,58.9,53.3,46.8,99,75,46,30.24,30.00,10,2,10,0.00
2013-5-27,79.2,66.1,48.0,62.9,54.2,47.5,99,70,38,30.30,30.03,9,2,10,0.00
2013-5-28,82.4,71.5,61.0,67.8,64.1,59.7,99,79,58,30.30,30.22,9,3,13,0.00
2013-5-29,84.2,73.9,63.5,72.0,66.5,63.0,99,80,59,30.29,30.21,12,3,15,0.00
2013-5-30,86.0,73.6,59.7,72.8,67.6,59.4,99,83,63,30.30,30.06,10,3,13,0.00
2013-5-31,88.3,76.0,64.4,74.1,70.1,64.1,99,83,60,30.27,30.03,11,3,13,0.00
2013-6-1,84.2,76.9,67.8,75.1,71.0,67.5,99,83,65,30.20,30.10,11,4,14,0.00
2013-6-2,84.6,77.7,72.1,73.6,71.3,70.0,93,81,67,30.11,29.95,14,6,17,0.00
2013-6-3,81.9,74.7,70.0,75.7,71.9,68.4,98,91,81,30.00,29.77,12,5,15,0.51
2013-6-4,82.8,73.8,66.2,73.7,69.3,64.3,99,87,65,30.11,29.91,13,4,15,0.00
2013-6-5,81.7,72.4,61.5,67.9,62.7,57.9,96,74,47,30.13,29.99,10,4,12,0.00
2013-6-6,82.0,73.7,64.4,72.8,69.3,62.5,98,87,69,30.07,29.87,11,3,15,0.17
2013-6-7,83.7,77.1,72.7,77.2,73.8,71.6,98,90,79,29.90,29.60,20,9,29,1.29
2013-6-8,84.4,78.9,75.0,78.5,74.9,72.7,94,88,79,30.12,29.87,18,8,23,0.00
2013-6-9,86.7,78.6,73.9,78.1,74.2,68.6,98,87,70,30.18,30.11,11,4,13,0.00
2013-6-10,84.4,78.6,73.9,76.9,74.4,71.8,96,87,76,30.17,30.00,17,7,22,0.05
2013-6-11,84.4,79.0,73.9,75.3,73.5,70.4,95,84,72,30.03,29.88,16,8,22,0.04
2013-6-12,91.8,80.3,68.2,76.7,72.5,67.6,99,79,55,29.99,29.80,13,4,16,0.00
2013-6-13,88.9,81.7,67.6,80.7,76.4,66.0,98,85,62,29.89,29.64,20,7,28,0.05
2013-6-14,81.3,72.6,54.1,69.0,63.0,53.0,98,74,48,30.03,29.68,14,4,16,0.35
2013-6-15,82.9,65.6,54.1,65.4,58.2,53.0,99,79,48,30.12,30.02,10,2,12,0.00
2013-6-16,83.7,77.3,66.2,71.0,66.8,63.0,93,71,54,30.17,30.06,14,6,17,0.00
2013-6-17,84.6,78.4,73.9,74.0,70.4,66.7,86,77,70,30.09,29.99,14,7,17,0.00
2013-6-18,85.8,78.7,72.7,77.5,74.5,70.1,97,87,72,30.02,29.81,18,7,21,0.45
2013-6-19,78.3,72.5,68.0,73.8,69.6,65.0,98,91,78,30.10,29.77,12,4,17,0.30
2013-6-20,81.9,73.5,66.6,99.9,65.5,53.7,96,76,40,30.21,30.08,17,6,21,0.00
2013-6-21,87.3,75.5,67.1,75.0,70.5,63.9,96,85,63,30.22,30.15,11,5,17,0.00
2013-6-22,80.8,74.2,70.3,75.1,71.9,69.4,98,93,79,30.22,30.16,9,3,12,0.88
2013-6-23,86.2,78.0,71.1,77.6,74.1,70.8,99,88,73,30.24,30.17,9,3,10,0.01
2013-6-24,85.3,78.7,73.6,78.2,74.9,71.7,98,89,76,30.26,30.12,13,4,16,0.25
2013-6-25,86.4,79.7,74.1,78.7,75.1,69.6,93,86,75,30.16,30.02,13,6,17,0.07
2013-6-26,86.5,80.8,76.6,78.3,75.7,73.4,93,85,73,30.07,29.95,13,7,17,0.01
2013-6-27,85.5,79.8,72.1,79.4,75.2,68.4,95,86,74,29.95,29.78,14,8,20,0.06
2013-6-28,86.2,80.9,76.3,79.9,77.2,71.4,96,89,80,29.82,29.65,17,9,23,0.32
2013-6-29,85.5,79.9,77.4,77.5,75.6,73.6,93,87,77,29.81,29.65,17,9,24,0.01
2013-6-30,81.7,77.2,72.5,77.5,74.6,71.3,98,92,85,29.93,29.78,14,6,18,1.88
2013-7-1,81.9,77.0,74.3,76.9,74.4,71.7,95,92,85,30.09,29.90,13,5,19,0.21
2013-7-2,87.4,79.7,73.0,79.3,75.5,71.2,98,88,76,30.24,30.06,15,4,20,0.30
2013-7-3,87.6,80.1,74.5,79.4,75.9,73.3,98,88,72,30.30,30.20,11,4,16,0.31
2013-7-4,89.1,80.0,72.5,78.5,74.8,71.9,99,85,67,30.32,30.25,9,2,12,0.00
2013-7-5,88.7,80.7,73.6,78.5,75.1,72.7,99,84,67,30.31,30.22,10,3,13,0.00
2013-7-6,89.2,80.8,72.3,77.0,73.9,71.4,99,80,63,30.28,30.17,8,3,14,0.00
2013-7-7,87.8,80.5,69.8,75.7,72.9,68.6,98,78,62,30.22,30.11,11,4,14,0.00
2013-7-8,87.1,81.0,74.7,76.3,73.4,71.0,90,78,65,30.21,30.13,10,5,15,0.00
2013-7-9,87.8,81.1,77.0,78.4,75.2,72.7,91,83,70,30.21,29.97,12,5,15,0.00
2013-7-10,88.0,81.3,75.7,77.0,74.8,73.2,93,81,67,30.15,29.91,12,5,18,0.07
2013-7-11,87.1,80.6,73.9,78.6,75.2,71.7,95,84,72,30.03,29.92,15,6,18,0.04
2013-7-12,83.3,75.7,66.5,99.9,73.5,70.0,98,90,80,30.00,29.89,10,3,14,3.53
2013-7-13,86.9,78.9,70.7,99.9,74.3,70.1,99,86,70,30.22,29.99,13,4,17,0.58
2013-7-14,88.2,80.6,72.5,78.5,74.8,71.6,98,83,65,30.29,30.21,11,3,14,0.00
2013-7-15,90.3,80.1,72.0,78.7,74.4,71.4,99,84,63,30.30,30.12,9,2,11,0.00
2013-7-16,92.7,81.5,70.0,79.2,74.4,69.2,99,81,55,30.27,30.17,9,2,10,0.00
2013-7-17,92.7,81.4,72.0,79.0,74.5,70.2,97,81,52,30.20,30.10,12,2,13,0.06
2013-7-18,97.0,81.5,70.3,79.9,73.0,69.7,99,78,46,30.14,30.07,9,3,12,0.00
2013-7-19,88.2,82.0,75.2,80.1,76.1,73.2,99,83,67,30.14,30.04,15,5,20,0.00
2013-7-20,88.0,82.1,75.6,78.9,75.7,74.0,96,81,70,30.07,29.98,16,8,20,0.54
2013-7-21,85.5,80.6,75.6,77.7,75.4,71.7,92,84,75,30.03,29.94,16,7,18,0.07
2013-7-22,87.4,81.5,75.6,79.0,76.6,74.4,97,85,69,29.98,29.71,14,6,20,0.00
2013-7-23,85.6,80.7,77.5,77.5,75.9,74.3,92,86,76,29.89,29.68,14,8,17,0.00
2013-7-24,90.5,81.7,74.5,80.7,76.5,72.6,95,85,68,29.82,29.74,12,4,17,0.00
2013-7-25,86.9,78.1,66.4,78.1,74.1,65.8,98,88,71,30.00,29.77,12,3,14,0.57
2013-7-26,86.0,75.5,66.0,73.7,69.2,65.3,99,82,53,30.09,29.91,8,2,10,0.00
2013-7-27,90.3,77.5,63.9,76.0,70.5,63.3,99,81,50,30.06,29.97,7,2,9,0.00
2013-7-28,88.3,80.0,73.9,79.0,75.5,72.5,98,87,69,30.03,29.89,12,4,15,0.16
2013-7-29,87.6,76.0,69.4,78.8,73.4,67.6,99,92,73,30.15,30.02,15,3,21,5.82
2013-7-30,84.6,75.1,32.0,99.9,73.5,69.0,99,90,74,30.20,30.00,10,1,11,0.07
2013-7-31,84.9,76.9,70.7,76.7,72.0,68.2,99,86,63,30.15,29.85,9,2,11,0.00
2013-8-1,82.0,77.2,70.3,76.1,74.2,69.4,98,91,81,30.04,29.89,13,4,17,0.96
2013-8-2,87.3,80.2,73.0,79.4,75.9,71.5,97,87,75,30.04,29.80,11,5,17,0.00
2013-8-3,88.2,82.1,78.8,79.7,77.4,76.2,94,86,73,30.05,29.92,12,6,15,0.00
2013-8-4,89.4,77.6,62.6,78.8,73.1,62.0,98,87,66,30.01,29.77,9,2,14,0.90
2013-8-5,87.8,73.0,61.3,74.2,63.5,58.6,99,76,41,30.08,29.88,9,2,10,0.00
2013-8-6,85.5,73.9,62.4,72.6,67.2,60.9,98,81,61,30.08,29.91,10,2,11,0.00
2013-8-7,89.4,76.8,65.7,76.3,71.4,65.1,99,84,63,30.11,29.91,10,2,13,0.00
2013-8-8,89.1,80.3,72.9,79.5,76.0,71.4,98,87,69,30.08,29.91,8,2,11,0.00
2013-8-9,88.3,82.4,77.0,80.0,77.8,75.5,97,86,73,30.09,30.03,14,6,18,0.60
2013-8-10,89.4,83.3,74.7,81.7,78.1,73.2,95,85,72,30.13,30.03,14,6,20,0.00
2013-8-11,90.9,82.0,73.4,81.8,77.5,44.0,98,87,70,30.11,30.02,8,3,12,0.00
2013-8-12,92.7,83.1,74.0,81.9,78.1,73.1,98,85,69,30.06,29.80,11,3,15,1.00
2013-8-13,89.6,82.0,74.1,81.5,78.3,70.7,97,89,76,29.95,29.79,15,6,18,1.01
2013-8-14,81.3,74.8,65.8,79.1,70.9,62.7,98,88,76,30.07,29.78,10,4,14,0.44
2013-8-15,70.0,67.7,64.8,99.9,66.2,16.3,98,92,78,30.11,30.03,12,4,12,1.03
2013-8-16,76.1,71.1,68.4,70.9,68.9,67.2,98,93,84,30.13,29.97,11,4,14,0.00
2013-8-17,81.3,74.3,68.2,76.4,72.5,66.1,99,94,82,30.13,30.04,9,3,12,0.36
2013-8-18,88.5,79.5,71.2,79.3,75.0,62.6,99,87,68,30.19,30.06,8,2,10,0.01
2013-8-19,82.2,74.9,72.1,77.7,73.7,71.5,99,96,86,30.17,30.06,11,3,13,0.66
2013-8-20,85.5,76.8,71.8,77.1,73.6,71.4,99,90,75,30.17,30.08,7,2,8,0.00
2013-8-21,88.9,78.1,70.0,79.6,74.5,69.7,99,89,69,30.22,30.12,12,2,14,1.12
2013-8-22,86.9,78.8,69.4,79.4,75.1,68.8,98,89,76,30.14,30.01,10,2,13,0.00
2013-8-23,88.7,78.5,69.8,80.1,74.3,68.8,99,88,73,30.02,29.90,11,2,14,1.14
2013-8-24,82.0,74.0,69.3,71.0,68.7,64.9,99,84,65,30.24,29.98,15,6,18,0.09
2013-8-25,80.8,71.6,32.0,99.9,65.6,60.5,96,78,64,30.33,30.18,15,5,18,0.17
2013-8-26,91.4,72.2,61.1,99.9,63.5,56.2,99,76,39,30.28,30.00,9,2,12,0.00
2013-8-27,84.7,77.3,60.4,69.0,65.9,59.4,99,70,52,30.13,29.91,12,4,14,0.00
2013-8-28,86.2,78.7,72.1,77.0,73.4,68.4,92,84,73,30.00,29.89,12,4,15,0.00
2013-8-29,88.3,79.4,72.0,79.1,74.5,69.6,94,85,73,29.98,29.83,12,4,16,0.43
2013-8-30,85.3,75.7,66.2,76.1,71.0,65.6,99,86,68,30.03,29.95,10,3,13,0.00
2013-8-31,92.3,77.9,67.6,80.0,72.9,67.3,99,86,63,29.99,29.80,9,2,12,0.00
2013-9-1,88.3,80.4,72.1,80.5,76.8,71.2,99,89,76,29.95,29.84,12,4,17,0.00
2013-9-2,87.6,80.7,70.7,81.6,77.6,69.8,99,90,82,29.94,29.80,15,6,18,3.22
2013-9-3,86.7,78.7,70.7,79.5,75.2,69.8,99,90,73,29.93,29.74,14,5,18,2.67
2013-9-4,86.4,76.5,67.1,77.1,72.7,66.8,99,89,71,30.07,29.92,8,2,10,0.01
2013-9-5,88.0,75.4,69.0,80.2,73.0,68.4,99,93,74,30.08,30.00,9,1,10,0.63
2013-9-6,85.8,75.1,67.1,76.9,70.8,66.5,99,87,68,30.09,30.02,14,3,19,0.01
2013-9-7,80.4,70.8,61.3,68.3,62.7,60.1,97,78,54,30.09,29.99,12,3,14,0.00
2013-9-8,85.5,73.0,60.6,72.7,66.6,60.0,98,82,62,30.00,29.88,10,2,11,0.00
2013-9-9,86.2,76.6,66.6,76.2,70.9,64.6,99,84,63,30.14,29.98,9,2,10,0.00
2013-9-10,87.6,77.1,68.9,74.6,69.9,65.7,97,81,52,30.22,30.10,10,2,13,0.00
2013-9-11,87.1,74.8,66.0,75.8,69.5,65.4,99,85,59,30.20,30.04,9,2,11,0.01
2013-9-12,86.5,76.4,65.3,76.5,71.0,64.7,99,84,64,30.09,29.81,8,3,13,0.00
2013-9-13,87.3,78.9,32.0,99.9,72.4,23.0,93,77,54,29.82,29.62,10,3,13,0.00
2013-9-14,79.5,70.8,64.4,68.9,65.8,62.6,96,85,70,30.11,29.81,15,4,17,0.66
2013-9-15,81.1,70.8,61.9,67.5,64.5,60.7,98,82,58,30.21,30.06,8,3,12,0.00
2013-9-16,86.9,71.4,62.8,80.9,68.1,62.2,98,90,60,30.16,29.97,9,2,15,0.44
2013-9-17,76.8,69.3,62.4,66.4,62.6,54.6,92,79,66,30.25,30.06,17,6,23,0.01
2013-9-18,77.0,66.2,55.2,64.2,59.0,54.4,97,79,58,30.24,30.15,14,4,17,0.00
2013-9-19,81.5,65.5,53.2,64.1,58.7,52.7,99,81,47,30.17,29.94,11,2,11,0.00
2013-9-20,81.5,69.0,60.4,68.7,63.0,59.8,99,83,53,30.08,29.97,9,2,10,0.00
2013-9-21,81.9,72.1,61.9,72.3,68.4,60.7,99,89,69,29.98,29.75,10,2,13,0.00
2013-9-22,78.6,72.6,68.7,75.0,69.8,63.5,98,91,83,29.82,29.66,17,4,22,1.79
2013-9-23,73.8,66.8,54.0,64.7,58.7,53.2,97,77,56,30.08,29.81,14,4,17,0.00
2013-9-24,74.3,60.8,48.0,62.2,54.4,47.5,99,82,55,30.10,29.96,11,2,15,0.00
2013-9-25,73.0,60.0,49.6,62.7,56.1,49.3,99,88,65,29.97,29.85,8,2,12,0.00
2013-9-26,77.0,67.5,59.2,67.0,62.6,58.0,97,85,63,29.96,29.83,13,4,13,0.09
2013-9-27,75.0,68.6,62.6,64.7,60.8,56.4,93,77,54,30.10,29.95,17,7,18,0.01
2013-9-28,70.9,64.5,60.9,63.0,61.3,60.3,98,89,76,30.12,30.05,12,8,18,0.18
2013-9-29,77.9,66.8,56.7,67.1,62.7,53.5,99,87,65,30.11,29.97,11,5,13,0.01
2013-9-30,66.7,57.0,55.9,63.0,56.3,55.6,99,98,88,30.04,29.99,3,0,3,0.01
2013-10-1,79.2,68.8,55.0,75.6,58.7,54.4,99,73,48,30.09,30.02,9,2,10,0.01
2013-10-2,84.9,68.7,54.9,69.2,62.4,54.3,99,83,54,30.13,29.94,9,2,9,0.01
2013-10-3,84.0,70.6,60.1,72.0,65.3,59.5,99,85,55,30.14,30.09,10,2,10,0.00
2013-10-4,77.4,68.0,60.4,72.9,66.1,60.1,99,94,77,30.13,30.06,3,0,3,0.00
2013-10-5,80.6,71.4,62.1,72.9,66.9,61.5,99,87,72,30.12,30.06,5,1,5,0.00
2013-10-6,83.8,74.1,64.6,74.1,69.5,64.3,99,87,68,30.08,29.98,12,3,12,0.00
2013-10-7,84.6,77.4,73.2,75.1,72.9,71.0,96,86,72,29.98,29.85,14,5,14,0.12
2013-10-8,73.6,65.3,32.0,99.9,65.4,62.2,98,96,95,30.06,29.89,24,10,24,5.10
2013-10-9,67.8,64.8,62.2,99.9,64.3,61.9,99,97,95,30.03,29.82,28,12,28,2.77
2013-10-10,67.8,61.0,32.0,99.9,66.0,15.4,99,88,89,29.87,29.81,15,5,15,0.01
2013-10-11,68.0,64.3,59.4,64.3,62.1,59.1,99,93,86,29.94,29.88,8,3,8,0.01
2013-10-12,72.9,66.2,62.6,66.7,64.0,62.0,98,93,80,30.02,29.91,7,1,7,0.00
2013-10-13,79.0,70.9,64.6,71.8,67.8,17.0,99,91,13,30.10,30.01,18,7,18,0.00
2013-10-14,71.6,69.4,66.6,68.8,66.5,63.4,93,90,86,30.13,30.06,20,10,20,0.00
2013-10-15,71.1,67.1,64.4,68.0,64.6,62.2,95,92,88,30.10,29.98,15,7,15,0.00
2013-10-16,73.4,69.1,66.9,69.1,66.8,65.4,95,93,86,29.99,29.93,12,5,12,0.00
2013-10-17,76.8,72.2,68.9,67.9,66.7,65.6,91,83,71,29.92,29.88,11,6,11,0.01
2013-10-18,77.0,70.0,65.8,69.1,66.5,63.5,98,89,68,30.01,29.88,10,4,10,0.17
2013-10-19,78.3,70.4,65.8,73.2,69.1,65.5,99,96,84,29.98,29.84,7,2,7,0.39
2013-10-20,70.0,62.8,52.2,69.4,58.7,51.3,98,87,72,30.10,29.86,16,4,16,0.00
2013-10-21,69.4,60.3,50.4,62.4,55.8,49.1,99,86,63,30.14,29.99,10,3,10,0.00
2013-10-22,71.4,62.1,56.3,62.6,58.7,54.9,97,89,66,29.99,29.83,5,1,5,0.04
2013-10-23,73.6,61.5,47.8,62.6,57.1,46.4,99,87,54,29.94,29.64,14,3,14,0.59
2013-10-24,62.2,49.8,39.6,47.4,40.6,37.1,95,73,42,30.17,29.93,12,3,12,0.00
2013-10-25,58.3,46.4,34.9,44.1,37.7,30.8,98,75,39,30.34,30.16,17,4,17,0.00
2013-10-26,67.5,46.8,32.7,99.9,40.5,31.7,99,81,52,30.35,30.10,9,2,9,0.00
2013-10-27,68.5,51.9,39.9,52.0,44.2,38.9,97,78,42,30.16,30.06,8,2,8,0.00
2013-10-28,72.9,56.0,42.3,59.6,50.6,41.8,99,85,42,30.26,30.15,7,1,7,0.00
2013-10-29,73.4,59.3,47.1,59.3,53.6,46.3,99,83,56,30.33,30.23,9,2,9,0.00
2013-10-30,76.5,60.6,50.0,62.2,55.1,49.7,99,84,48,30.31,30.19,9,2,9,0.00
2013-10-31,71.1,63.2,51.8,68.3,61.3,51.5,99,94,84,30.23,30.01,14,3,14,0.04
2013-11-1,76.3,72.3,66.9,72.6,69.5,65.6,97,91,86,30.01,29.73,20,8,20,0.07
2013-11-2,73.8,65.1,55.2,71.6,63.4,54.4,99,94,84,29.86,29.67,17,3,17,1.20
2013-11-3,62.8,54.8,47.3,57.6,47.2,40.1,99,78,51,30.33,29.85,17,5,17,0.00
2013-11-4,58.5,53.4,48.0,49.7,44.9,39.8,93,74,56,30.47,30.32,20,9,20,0.00
2013-11-5,73.6,62.0,51.8,61.0,55.7,49.5,95,81,54,30.44,30.37,20,9,20,0.00
2013-11-6,67.6,62.4,57.4,65.0,61.2,56.3,99,96,88,30.38,30.11,14,7,14,0.29
2013-11-7,72.1,65.5,54.5,68.8,64.0,45.8,99,95,73,30.11,29.88,15,3,15,0.25
2013-11-8,57.0,48.3,34.5,46.2,37.7,30.8,99,70,40,30.31,30.01,18,5,18,0.00
2013-11-9,60.6,45.8,32.7,50.3,42.1,32.5,99,89,56,30.37,30.19,10,1,10,0.00
2013-11-10,70.0,55.2,45.9,52.8,47.6,40.9,99,79,40,30.21,30.06,13,3,13,0.00
2013-11-11,60.3,49.9,37.6,47.8,43.1,37.1,99,79,59,30.31,30.15,16,4,16,0.00
2013-11-12,67.8,47.4,35.1,49.4,38.8,13.9,99,75,39,30.31,29.99,22,6,28,0.00
2013-11-13,45.0,35.2,25.2,32.7,25.9,21.9,97,72,42,30.49,30.31,18,5,23,0.01
2013-11-14,59.9,38.1,23.0,39.2,28.0,20.3,99,75,23,30.50,30.35,5,1,7,0.00
2013-11-15,71.1,52.3,33.8,60.0,47.2,33.3,99,85,45,30.38,30.22,7,1,9,0.15
2013-11-16,73.8,63.2,58.3,67.4,61.2,58.0,99,94,76,30.25,30.16,9,3,10,0.07
2013-11-17,78.8,66.0,56.7,70.0,63.6,56.4,99,93,71,30.18,29.94,8,3,10,0.09
2013-11-18,77.7,67.9,54.3,72.9,66.3,45.6,99,95,66,29.95,29.75,12,4,15,0.02
2013-11-19,57.0,50.6,42.1,45.9,38.6,34.5,89,65,44,30.26,29.86,17,5,20,0.00
2013-11-20,59.9,50.9,41.4,50.2,45.6,38.8,94,83,67,30.38,30.23,18,7,24,0.00
2013-11-21,63.3,56.6,51.6,61.2,55.5,49.6,99,96,91,30.43,30.35,9,4,12,0.00
2013-11-22,72.7,60.8,49.1,65.1,58.4,48.8,99,92,74,30.38,30.09,8,2,12,0.01
2013-11-23,66.4,57.8,48.0,64.1,56.6,38.9,99,96,70,30.09,29.99,16,3,20,0.08
2013-11-24,48.0,37.0,27.5,39.0,20.2,11.0,71,51,35,30.52,30.06,18,5,22,0.00
2013-11-25,43.9,33.3,24.6,35.3,23.9,11.6,98,69,48,30.57,30.36,10,3,12,0.00
2013-11-26,69.4,56.1,35.4,68.8,54.5,34.9,99,95,78,30.36,29.62,16,5,22,1.25
2013-11-27,70.0,56.0,34.7,69.1,55.5,31.4,99,98,86,30.09,29.41,18,6,21,0.74
2013-11-28,43.3,33.8,27.3,32.0,26.6,22.5,99,77,50,30.50,30.09,13,3,17,0.00
2013-11-29,52.7,42.4,29.1,36.5,33.6,28.6,99,73,41,30.57,30.47,11,4,15,0.00
2013-11-30,57.4,46.3,37.8,48.3,42.5,35.0,98,87,70,30.57,30.31,15,6,19,0.00
2013-12-1,57.4,48.6,41.9,52.1,47.3,41.6,99,96,81,30.32,30.00,7,2,9,0.04
2013-12-2,55.8,49.7,43.7,51.5,47.9,42.9,99,94,79,30.00,29.76,8,3,12,0.00
2013-12-3,62.6,47.3,35.8,47.5,41.4,32.6,99,83,39,30.03,29.84,6,1,7,0.00
2013-12-4,66.7,57.5,48.0,65.7,57.1,47.5,99,99,95,30.12,30.00,8,1,9,0.34
2013-12-5,74.3,62.3,49.3,70.4,61.4,49.0,99,97,86,30.18,30.09,10,2,16,0.01
2013-12-6,75.4,69.1,65.1,70.7,67.8,64.8,99,96,84,30.16,30.06,17,5,18,0.00
2013-12-7,69.4,54.6,43.2,69.1,54.3,42.9,99,99,95,30.40,30.06,14,7,18,0.34
2013-12-8,48.7,44.5,42.4,48.2,44.2,42.1,99,99,98,30.38,30.25,14,6,17,0.13
2013-12-9,69.8,55.6,44.1,67.8,55.0,43.8,99,98,92,30.27,30.06,7,2,9,0.00
2013-12-10,67.6,55.0,34.7,66.4,54.7,34.4,99,99,95,30.30,29.83,16,4,22,0.20
2013-12-11,50.2,37.0,26.1,38.3,31.1,25.9,99,83,47,30.46,30.28,8,1,9,0.01
2013-12-12,46.8,33.3,25.0,34.7,29.9,24.8,99,89,47,30.39,30.24,13,1,17,0.00
2013-12-13,50.9,34.9,23.7,34.7,27.7,22.6,99,80,35,30.43,30.30,7,1,11,0.00
2013-12-14,66.9,51.4,29.8,65.0,48.3,29.6,99,90,60,30.33,29.74,15,5,20,1.87
2013-12-15,61.7,53.2,38.7,61.4,52.0,38.4,99,96,81,30.04,29.67,9,3,14,0.18
2013-12-16,57.6,41.2,29.3,44.7,35.8,29.1,99,84,46,30.19,30.04,8,1,10,0.00
2013-12-17,60.3,47.1,34.0,51.6,42.5,33.7,99,86,62,30.18,29.93,21,4,21,0.00
2013-12-18,54.1,41.8,26.2,42.2,31.7,23.1,99,71,34,30.32,29.95,18,4,18,0.00
2013-12-19,59.5,42.0,25.9,44.7,36.8,25.7,99,85,54,30.36,30.27,12,2,12,0.00
2013-12-20,71.6,54.3,39.9,63.6,52.2,39.6,99,93,71,30.28,30.15,10,2,10,0.00
2013-12-21,73.6,64.2,53.6,68.5,62.9,53.3,99,96,81,30.20,29.88,14,4,14,0.00
2013-12-22,76.3,69.4,66.0,71.9,68.2,65.7,99,96,85,30.16,30.09,14,6,18,0.64
2013-12-23,74.8,68.5,60.4,72.2,67.8,60.1,99,98,90,30.14,30.02,13,6,19,0.19
2013-12-24,60.4,43.3,31.8,60.1,41.2,29.1,99,93,72,30.39,30.03,14,4,21,0.33
2013-12-25,43.3,37.3,29.7,38.1,31.8,25.0,95,80,70,30.51,30.37,12,5,16,0.00
2013-12-26,45.0,42.3,38.1,44.7,41.7,37.8,99,98,94,30.37,30.22,9,3,12,0.05
2013-12-27,52.9,41.5,31.5,40.1,36.3,31.3,99,84,50,30.41,30.30,13,3,17,0.00
2013-12-28,61.5,45.5,30.6,48.4,37.7,30.4,99,77,40,30.40,30.16,7,2,9,0.00
2013-12-29,69.4,62.1,48.9,99.9,60.1,43.6,99,93,80,30.16,29.71,21,6,21,0.46
2013-12-30,59.9,49.8,40.5,51.4,47.3,40.2,99,92,65,30.10,29.90,6,1,7,0.00
2013-12-31,53.8,44.0,33.6,45.7,40.3,33.3,99,89,50,30.36,30.00,10,2,13,0.00
2014-1-1,54.5,45.4,32.7,47.0,41.4,-12.1,99,87,62,30.35,30.14,7,2,7,0.07
2014-1-2,60.4,50.4,46.6,60.0,50.1,46.3,99,99,99,30.14,29.49,12,2,20,0.55